Location: Petruro
(41.0333°N, 14.7833°E)
Time: 09:09:14
(UTC+00:00)

Cosmos 1933 - Pass Details

Date: 20 June 2021
Orbit: 547 x 562 km, 82.5° (Epoch: 01 August)

Event Time Altitude Azimuth Distance (km) Brightness Sun altitude
Rises 01:02:47 0° 356° (N) 2,760 7.8 -19.7°
Reaches altitude 10° 01:04:59 10° 360° (N) 1,861 6.9 -19.5°
Maximum altitude 01:09:03 60° 80° (E) 645 3.8 -19.2°
Enters shadow 01:11:08 27° 152° (SSE) 1,107 4.6 -18.9°
